Regional Weather Roundup
Issued by NWS Raleigh/Durham, NC

Home | Current Version | Previous Version | Text Only | Print | Product List | Glossary On
Versions: 1 2 3 4 5 6 7 8 9 10 11 12 13 14 15 16 17 18 19 20 21 22 23 24 25 26 27 28 29 30 31 32 33 34 35 36 37 38 39 40 41 42 43 44 45 46 47 48 49 50
000
ASUS42 KRAH 300604
RWRRAH
NORTH CAROLINA WEATHER ROUNDUP
NATIONAL WEATHER SERVICE RALEIGH NC
200 AM EDT TUE JUN 30 2015

NOTE: "FAIR" INDICATES FEW OR NO CLOUDS BELOW 12,000 FEET WITH NO
SIGNIFICANT WEATHER AND/OR OBSTRUCTIONS TO VISIBILITY.

NCZ001-053-055-056-065-067-300700-
WESTERN NORTH CAROLINA

CITY           SKY/WX    TMP DP  RH WIND       PRES   REMARKS
ASHEVILLE      PTCLDY    68  61  78 S5        30.03F
JEFFERSON      CLOUDY    65  55  68 CALM      30.04F
HICKORY        PTCLDY    70  59  68 W6        29.96S
RUTHERFORDTON  NOT AVBL
MOUNT AIRY     NOT AVBL
$$

NCZ021-022-025-041-071-084-088-300700-
CENTRAL NORTH CAROLINA

CITY           SKY/WX    TMP DP  RH WIND       PRES   REMARKS
CHARLOTTE      PTCLDY    74  59  59 SW6       29.96F
GREENSBORO     MOCLDY    71  59  65 CALM      29.94F
WINSTON-SALEM  CLEAR     68  60  75 CALM      29.96S
RALEIGH-DURHAM PTCLDY    73  65  75 CALM      29.94F
FORT BRAGG     CLEAR     75  61  61 CALM      29.94S
FAYETTEVILLE   CLEAR     71  63  75 SW5       29.94F
$$

NCZ011-015-027-028-043-044-047-080-103-300700-
NORTHEASTERN NORTH CAROLINA

CITY           SKY/WX    TMP DP  RH WIND       PRES   REMARKS
ROANOKE RAPIDS FAIR      72  66  83 S5        29.95S
ROCKY MT-WILSO CLEAR     71  68  90 S3        29.94F
WASHINGTON     CLEAR     74  71  89 S5        29.95F
ELIZABETH CITY NOT AVBL
MANTEO         PTCLDY    72  70  92 CALM      29.96F
CAPE HATTERAS  PTCLDY    77  72  84 W5        29.97F
$$

NCZ078-087-090-091-093-098-101-300700-
SOUTHEASTERN NORTH CAROLINA

CITY           SKY/WX    TMP DP  RH WIND       PRES   REMARKS
LUMBERTON      CLEAR     72  63  73 SW5       29.95F
KINSTON        CLEAR     71  69  92 SW5       29.96F
KENANSVILLE    CLEAR     69  68  94 CALM      29.96F
NEW BERN       CLEAR     73  70  90 SW5       29.96F
CHERRY POINT   PTCLDY    74  71  91 CALM      29.96F
BEAUFORT       PTCLDY    78  72  81 SW10      29.96F
JACKSONVILLE   CLEAR     73  68  84 S5        29.95F
WILMINGTON     CLEAR     75  71  87 S6        29.96F
$$




USA.gov is the U.S. government's official web portal to all federal, state and local government web resources and services.